Tracking 26922 objects as of 1-Feb-2023
HD Live streaming from Space Station
objects crossing your sky now

SL-8 DEB *

Track SL-8 DEB * now!
10-day predictions


NORAD ID: 14865
Int'l Code: 1975-094E
Perigee: 674.3 km
Apogee: 679.8 km
Inclination: 74.0 °
Period: 98.1 minutes
Semi major axis: 7048 km
RCS: 0.0088 m2 (small)
Launch date: September 30, 1975
Source: Commonwealth of Independent States (former USSR) (CIS)
Launch site: PLESETSK MISSILE AND SPACE COMPLEX (PKMTR)

Note: This is SATELLITE DEBRIS
Your satellite tracking list
Your tracking list is empty




NASA's NSSDC Master Catalog

Two Line Element Set (TLE):
1 14865U 75094E   23031.53785345  .00002542  00000-0  45661-3 0  9996
2 14865  74.0254  74.1402 0003883 334.7606 176.6136 14.67237893 56761
Source of the keplerian elements: AFSPC